Total_Precipitation_Accumulation
0.11 0.28 0.15 0.06 0.04 0.09 0.24 0.07 0.08 0.08 0.08 0.04 0.05 0.22 0.26 0.18 0.09 0.05 0.07 0.13 0.24 0.27 0.35 1.03 1.42 1.62 1.06 0.55 0.53 0.52 0.71 0.50 0.31 0.27 0.07 0.05 0.05 0.05 0.07 0.08 0.09 0.05 0.07 0.03
0.14 0.11 0.04 0.04 0.05 0.08 0.32 0.11 0.13 0.22 0.13 0.07 0.06 0.18 0.24 0.19 0.09 0.03 0.04 0.07 0.12 0.24 0.55 0.83 1.02 1.77 2.40 1.37 0.70 0.73 0.69 0.32 0.21 0.29 0.32 0.20 0.14 0.10 0.02 0.02 0.04 0.16 0.16 0.13
0.25 0.24 0.17 0.10 0.02 0.10 0.14 0.04 0.11 0.44 0.16 0.15 0.07 0.11 0.14 0.23 0.09 0.03 0.02 0.03 0.06 0.16 0.45 0.86 0.77 0.91 1.25 1.85 1.07 0.69 0.81 0.46 0.21 0.21 0.27 0.36 0.49 0.45 0.25 0.14 0.14 0.28 0.36 0.36
0.32 0.17 0.15 0.16 0.04 0.05 0.01 0.05 0.41 0.33 0.16 0.21 0.06 0.13 0.12 0.18 0.20 0.05 0.02 0.02 0.04 0.10 0.27 0.62 0.89 0.74 0.68 0.78 1.09 0.69 0.83 0.61 0.56 0.42 0.41 0.47 0.54 0.46 0.37 0.41 0.39 0.58 0.62 0.61
0.19 0.08 0.10 0.10 0.02 0.01 0.02 0.09 0.27 0.37 0.35 0.17 0.09 0.23 0.21 0.09 0.22 0.14 0.03 0.02 0.04 0.12 0.23 0.25 0.47 0.73 0.75 0.57 1.13 1.04 0.82 0.55 0.58 0.64 0.52 0.50 0.62 0.46 0.34 0.35 0.29 0.28 0.31 0.41
0.31 0.17 0.14 0.07 0.07 0.03 0.07 0.18 0.41 0.55 0.43 0.30 0.21 0.30 0.22 0.11 0.20 0.23 0.07 0.02 0.05 0.14 0.16 0.13 0.15 0.18 0.25 0.37 0.62 0.94 0.59 0.35 0.36 0.52 0.44 0.36 0.55 0.67 0.61 0.48 0.36 0.25 0.31 0.34
0.27 0.17 0.07 0.09 0.14 0.18 0.51 0.48 0.45 0.30 0.11 0.07 0.10 0.08 0.16 0.11 0.09 0.18 0.14 0.02 0.06 0.07 0.06 0.05 0.02 0.00 0.01 0.05 0.19 0.33 0.29 0.24 0.19 0.31 0.37 0.19 0.34 0.50 0.47 0.46 0.53 0.40 0.28 0.28
0.12 0.35 0.27 0.13 0.25 0.39 0.30 0.13 0.12 0.10 0.05 0.04 0.02 0.16 0.26 0.11 0.08 0.15 0.13 0.04 0.05 0.06 0.06 0.03 0.00 0.00 0.00 0.00 0.05 0.12 0.16 0.15 0.10 0.10 0.30 0.30 0.28 0.29 0.21 0.29 0.30 0.37 0.34 0.30
0.09 0.15 0.07 0.06 0.05 0.12 0.04 0.02 0.01 0.05 0.01 0.03 0.11 0.16 0.13 0.12 0.16 0.25 0.12 0.03 0.07 0.11 0.03 0.00 0.00 0.00 0.00 0.00 0.00 0.00 0.02 0.05 0.06 0.08 0.13 0.08 0.16 0.13 0.12 0.22 0.23 0.22 0.17 0.24
0.02 0.11 0.07 0.07 0.08 0.05 0.00 0.00 0.00 0.02 0.02 0.06 0.08 0.08 0.16 0.12 0.27 0.18 0.08 0.01 0.06 0.06 0.00 0.00 0.00 0.00 0.00 0.00 0.00 0.00 0.00 0.00 0.00 0.00 0.00 0.01 0.07 0.04 0.06 0.12 0.10 0.10 0.04 0.05
0.00 0.04 0.06 0.02 0.01 0.00 0.00 0.00 0.00 0.00 0.00 0.00 0.00 0.03 0.03 0.05 0.10 0.07 0.02 0.00 0.00 0.00 0.00 0.00 0.00 0.00 0.00 0.00 0.00 0.00 0.00 0.00 0.00 0.00 0.00 0.00 0.00 0.00 0.00 0.01 0.04 0.03 0.01 0.03
0.00 0.00 0.01 0.00 0.00 0.00 0.00 0.00 0.00 0.00 0.00 0.00 0.00 0.02 0.00 0.00 0.00 0.00 0.00 0.00 0.00 0.00 0.00 0.00 0.00 0.00 0.00 0.00 0.00 0.00 0.00 0.00 0.00 0.00 0.00 0.00 0.00 0.00 0.00 0.00 0.00 0.01 0.01 0.01
0.00 0.00 0.00 0.00 0.00 0.00 0.00 0.00 0.00 0.00 0.00 0.00 0.00 0.01 0.00 0.00 0.00 0.00 0.00 0.00 0.00 0.00 0.00 0.00 0.00 0.00 0.00 0.00 0.00 0.00 0.00 0.00 0.00 0.00 0.00 0.00 0.00 0.00 0.00 0.00 0.00 0.00 0.00 0.01
0.00 0.00 0.00 0.00 0.00 0.00 0.00 0.00 0.00 0.00 0.00 0.00 0.00 0.00 0.00 0.00 0.00 0.00 0.00 0.00 0.00 0.00 0.00 0.00 0.00 0.00 0.00 0.00 0.00 0.00 0.00 0.00 0.00 0.00 0.00 0.00 0.00 0.00 0.00 0.00 0.00 0.00 0.00 0.01
0.00 0.00 0.00 0.00 0.00 0.00 0.00 0.00 0.00 0.00 0.00 0.00 0.00 0.00 0.00 0.00 0.00 0.00 0.00 0.00 0.00 0.00 0.00 0.00 0.00 0.00 0.00 0.00 0.00 0.00 0.00 0.00 0.00 0.00 0.00 0.00 0.00 0.00 0.00 0.00 0.00 0.00 0.00 0.01
0.00 0.00 0.00 0.00 0.00 0.00 0.00 0.00 0.00 0.00 0.00 0.00 0.00 0.00 0.00 0.00 0.00 0.00 0.00 0.00 0.00 0.00 0.00 0.00 0.00 0.00 0.00 0.00 0.00 0.00 0.00 0.00 0.00 0.00 0.00 0.00 0.00 0.00 0.00 0.00 0.00 0.00 0.00 0.00
0.00 0.00 0.00 0.00 0.00 0.00 0.00 0.00 0.00 0.00 0.00 0.00 0.00 0.00 0.00 0.00 0.00 0.00 0.00 0.00 0.00 0.00 0.00 0.00 0.00 0.00 0.00 0.00 0.00 0.00 0.00 0.00 0.00 0.00 0.00 0.00 0.00 0.00 0.00 0.00 0.00 0.00 0.00 0.00
0.00 0.00 0.00 0.00 0.00 0.00 0.00 0.00 0.00 0.00 0.00 0.00 0.00 0.00 0.00 0.00 0.00 0.00 0.00 0.00 0.00 0.00 0.00 0.00 0.00 0.00 0.00 0.00 0.00 0.00 0.00 0.00 0.00 0.00 0.00 0.00 0.00 0.00 0.00 0.00 0.00 0.00 0.00 0.00
0.00 0.00 0.00 0.00 0.00 0.00 0.00 0.00 0.00 0.00 0.00 0.00 0.00 0.00 0.00 0.00 0.00 0.00 0.00 0.00 0.00 0.00 0.00 0.00 0.00 0.00 0.00 0.00 0.00 0.00 0.00 0.00 0.00 0.00 0.00 0.00 0.00 0.00 0.00 0.00 0.00 0.00 0.00 0.00
0.00 0.00 0.00 0.00 0.00 0.00 0.00 0.00 0.00 0.00 0.00 0.00 0.00 0.00 0.00 0.00 0.00 0.00 0.00 0.00 0.00 0.00 0.00 0.00 0.00 0.00 0.00 0.00 0.00 0.00 0.00 0.00 0.00 0.00 0.00 0.00 0.00 0.00 0.00 0.00 0.00 0.00 0.00 0.00
0.00 0.00 0.00 0.00 0.00 0.00 0.00 0.00 0.00 0.00 0.00 0.00 0.00 0.00 0.00 0.00 0.00 0.00 0.00 0.00 0.00 0.00 0.00 0.00 0.00 0.00 0.00 0.00 0.00 0.00 0.00 0.00 0.00 0.00 0.00 0.00 0.00 0.00 0.00 0.00 0.00 0.00 0.00 0.00
0.00 0.00 0.00 0.00 0.00 0.00 0.00 0.00 0.00 0.00 0.00 0.00 0.00 0.00 0.00 0.00 0.00 0.00 0.00 0.00 0.00 0.00 0.00 0.00 0.00 0.00 0.00 0.00 0.00 0.00 0.00 0.00 0.00 0.00 0.00 0.00 0.00 0.00 0.00 0.00 0.00 0.00 0.00 0.00
0.00 0.00 0.00 0.00 0.00 0.00 0.00 0.00 0.00 0.00 0.00 0.00 0.00 0.00 0.00 0.00 0.00 0.00 0.00 0.00 0.00 0.00 0.00 0.00 0.00 0.00 0.00 0.00 0.00 0.01 0.00 0.00 0.00 0.01 0.01 0.01 0.00 0.00 0.00 0.00 0.00 0.00 0.00 0.00
0.00 0.00 0.00 0.00 0.00 0.00 0.00 0.00 0.00 0.00 0.00 0.00 0.00 0.00 0.00 0.00 0.00 0.00 0.00 0.00 0.00 0.00 0.00 0.00 0.00 0.00 0.01 0.01 0.00 0.00 0.00 0.00 0.01 0.01 0.00 0.00 0.01 0.02 0.01 0.01 0.01 0.01 0.01 0.01
0.00 0.00 0.00 0.00 0.00 0.00 0.00 0.00 0.00 0.00 0.00 0.00 0.00 0.00 0.00 0.00 0.00 0.00 0.00 0.00 0.00 0.00 0.00 0.00 0.01 0.01 0.01 0.00 0.01 0.00 0.00 0.01 0.02 0.03 0.03 0.03 0.03 0.05 0.04 0.02 0.02 0.02 0.02 0.03
0.00 0.00 0.00 0.00 0.00 0.00 0.00 0.00 0.00 0.00 0.00 0.00 0.00 0.00 0.00 0.00 0.00 0.00 0.00 0.00 0.00 0.00 0.01 0.02 0.04 0.04 0.05 0.06 0.05 0.02 0.03 0.05 0.06 0.06 0.04 0.06 0.08 0.09 0.12 0.19 0.17 0.15 0.13 0.14